N2843 KLXV-KSBS

Flight info

Callsign N2843
Flight time 0h 42m
Altitude 16500
Route RLG
Aircraft C208/L-SDFGR/C

Departure

Time 2026-04-24 19:06
Airport Lake County Airport (KLXV)

Arrival

Time 2026-04-24 19:48
Airport Steamboat Springs Bob Adams Field (KSBS)
Time Latitude Longitude Altitude Speed Heading
2026-04-24 18:54 39.22276 -106.31612 9943 ft 0 kts 84°
2026-04-24 19:02 39.22274 -106.31604 9948 ft 0 kts 124°
2026-04-24 19:02 39.22244 -106.31611 9941 ft 8 kts 262°
2026-04-24 19:02 39.22218 -106.31679 9938 ft 10 kts 205°
2026-04-24 19:02 39.22110 -106.31685 9941 ft 24 kts 172°
2026-04-24 19:03 39.21885 -106.31641 9935 ft 40 kts 170°
2026-04-24 19:03 39.21573 -106.31576 9931 ft 47 kts 170°
2026-04-24 19:03 39.21272 -106.31510 9932 ft 28 kts 171°
2026-04-24 19:03 39.21143 -106.31483 9934 ft 12 kts 169°
2026-04-24 19:04 39.21089 -106.31448 9937 ft 11 kts 98°
2026-04-24 19:04 39.21117 -106.31363 9934 ft 8 kts
2026-04-24 19:04 39.21169 -106.31408 9933 ft 9 kts 265°
2026-04-24 19:04 39.21170 -106.31471 9936 ft 6 kts 306°
2026-04-24 19:05 39.21207 -106.31489 9935 ft 0 kts 351°
2026-04-24 19:05 39.21211 -106.31490 9935 ft 9 kts 351°
2026-04-24 19:05 39.21546 -106.31562 9931 ft 82 kts 351°
2026-04-24 19:05 39.22212 -106.31718 10190 ft 97 kts 344°
2026-04-24 19:06 39.22867 -106.31802 10716 ft 96 kts 348°
2026-04-24 19:06 39.23534 -106.31806 11252 ft 94 kts 346°
2026-04-24 19:06 39.24188 -106.31782 11685 ft 95 kts 347°
2026-04-24 19:06 39.24856 -106.31751 11986 ft 97 kts 346°
2026-04-24 19:07 39.25568 -106.31714 12355 ft 107 kts 348°
2026-04-24 19:07 39.26289 -106.31648 12930 ft 103 kts 350°
2026-04-24 19:07 39.26757 -106.31607 13149 ft 102 kts 348°
2026-04-24 19:07 39.27708 -106.31535 13792 ft 104 kts 352°
2026-04-24 19:08 39.28431 -106.31240 14102 ft 103 kts 345°
2026-04-24 19:08 39.29153 -106.31393 14399 ft 112 kts 343°
2026-04-24 19:08 39.29883 -106.31486 14909 ft 104 kts 339°
2026-04-24 19:08 39.30590 -106.31574 15302 ft 102 kts 338°
2026-04-24 19:09 39.31281 -106.31682 15717 ft 96 kts 332°
2026-04-24 19:09 39.31961 -106.31841 16067 ft 101 kts 335°
2026-04-24 19:09 39.32645 -106.31970 16460 ft 99 kts 334°
2026-04-24 19:09 39.33415 -106.32139 16492 ft 127 kts 338°
2026-04-24 19:10 39.34376 -106.32317 16495 ft 151 kts 340°
2026-04-24 19:10 39.35471 -106.32514 16475 ft 168 kts 342°
2026-04-24 19:10 39.36655 -106.32715 16453 ft 173 kts 341°
2026-04-24 19:10 39.37851 -106.32924 16441 ft 175 kts 342°
2026-04-24 19:11 39.39071 -106.33147 16423 ft 179 kts 342°
2026-04-24 19:11 39.40303 -106.33366 16415 ft 179 kts 342°
2026-04-24 19:11 39.41535 -106.33586 16406 ft 179 kts 342°
2026-04-24 19:11 39.42769 -106.33811 16394 ft 180 kts 342°
2026-04-24 19:12 39.43996 -106.34029 16380 ft 181 kts 342°
2026-04-24 19:12 39.45254 -106.34257 16371 ft 181 kts 342°
2026-04-24 19:12 39.46477 -106.34477 16372 ft 180 kts 342°
2026-04-24 19:12 39.47728 -106.34698 16355 ft 182 kts 342°
2026-04-24 19:13 39.48574 -106.34853 16364 ft 183 kts 342°
2026-04-24 19:13 39.50279 -106.35167 16346 ft 190 kts 343°
2026-04-24 19:13 39.51583 -106.35397 16323 ft 187 kts 342°
2026-04-24 19:13 39.52871 -106.35631 16320 ft 187 kts 342°
2026-04-24 19:14 39.54158 -106.35865 16310 ft 187 kts 342°
2026-04-24 19:14 39.55447 -106.36092 16299 ft 186 kts 342°
2026-04-24 19:14 39.56722 -106.36324 16293 ft 185 kts 341°
2026-04-24 19:14 39.57998 -106.36557 16283 ft 185 kts 342°
2026-04-24 19:15 39.59267 -106.36783 16280 ft 182 kts 343°
2026-04-24 19:15 39.60498 -106.37008 16283 ft 176 kts 341°
2026-04-24 19:15 39.61700 -106.37224 16284 ft 170 kts 341°
2026-04-24 19:15 39.62862 -106.37431 16295 ft 169 kts 341°
2026-04-24 19:16 39.65207 -106.37867 16297 ft 173 kts 341°
2026-04-24 19:16 39.66391 -106.38077 16296 ft 171 kts 341°
2026-04-24 19:16 39.67551 -106.38284 16302 ft 167 kts 340°
2026-04-24 19:17 39.68712 -106.38497 16307 ft 170 kts 340°
2026-04-24 19:17 39.69896 -106.38715 16306 ft 172 kts 341°
2026-04-24 19:17 39.71087 -106.38927 16314 ft 173 kts 340°
2026-04-24 19:17 39.72282 -106.39148 16305 ft 174 kts 341°
2026-04-24 19:18 39.73481 -106.39365 16297 ft 174 kts 340°
2026-04-24 19:18 39.74678 -106.39580 16299 ft 172 kts 341°
2026-04-24 19:18 39.75857 -106.39794 16288 ft 170 kts 340°
2026-04-24 19:18 39.77031 -106.40008 16307 ft 172 kts 341°
2026-04-24 19:19 39.78243 -106.40232 16300 ft 179 kts 340°
2026-04-24 19:19 39.79478 -106.40456 16318 ft 180 kts 340°
2026-04-24 19:19 39.80735 -106.40686 16306 ft 183 kts 341°
2026-04-24 19:19 39.81996 -106.40911 16307 ft 183 kts 341°
2026-04-24 19:20 39.83245 -106.41138 16309 ft 180 kts 341°
2026-04-24 19:20 39.84464 -106.41363 16292 ft 177 kts 340°
2026-04-24 19:20 39.85669 -106.41579 16288 ft 174 kts 340°
2026-04-24 19:20 39.86856 -106.41796 16295 ft 171 kts 340°
2026-04-24 19:21 39.88044 -106.42016 16290 ft 172 kts 340°
2026-04-24 19:21 39.89223 -106.42228 16286 ft 169 kts 339°
2026-04-24 19:21 39.90383 -106.42440 16290 ft 168 kts 340°
2026-04-24 19:21 39.91545 -106.42655 16289 ft 169 kts 340°
2026-04-24 19:22 39.92335 -106.42802 16284 ft 170 kts 340°
2026-04-24 19:22 39.93494 -106.43009 16287 ft 167 kts 340°
2026-04-24 19:22 39.94650 -106.43222 16290 ft 169 kts 340°
2026-04-24 19:22 39.95814 -106.43436 16298 ft 170 kts 340°
2026-04-24 19:23 39.96989 -106.43650 16294 ft 170 kts 340°
2026-04-24 19:23 39.98161 -106.43865 16293 ft 170 kts 340°
2026-04-24 19:23 39.99340 -106.44081 16290 ft 173 kts 340°
2026-04-24 19:23 40.00532 -106.44295 16284 ft 173 kts 340°
2026-04-24 19:24 40.01659 -106.44669 16281 ft 158 kts 317°
2026-04-24 19:24 40.02246 -106.45739 16285 ft 142 kts 284°
2026-04-24 19:24 40.02548 -106.46975 16281 ft 145 kts 283°
2026-04-24 19:24 40.02973 -106.48165 16284 ft 144 kts 286°
2026-04-24 19:25 40.03417 -106.49338 16282 ft 147 kts 297°
2026-04-24 19:25 40.04008 -106.50435 16283 ft 148 kts 298°
2026-04-24 19:25 40.04631 -106.51516 16279 ft 149 kts 299°
2026-04-24 19:25 40.05263 -106.52588 16280 ft 149 kts 299°
2026-04-24 19:26 40.05903 -106.53662 16275 ft 150 kts 299°
2026-04-24 19:26 40.06545 -106.54740 16286 ft 151 kts 300°
2026-04-24 19:26 40.07187 -106.55806 16292 ft 152 kts 300°
2026-04-24 19:26 40.07839 -106.56898 16294 ft 152 kts 299°
2026-04-24 19:27 40.08494 -106.57990 16297 ft 152 kts 300°
2026-04-24 19:27 40.09146 -106.59081 16290 ft 152 kts 300°
2026-04-24 19:27 40.09797 -106.60177 16288 ft 152 kts 300°
2026-04-24 19:27 40.10452 -106.61269 16290 ft 153 kts 300°
2026-04-24 19:28 40.11110 -106.62367 16286 ft 153 kts 300°
2026-04-24 19:28 40.11762 -106.63455 16291 ft 152 kts 300°
2026-04-24 19:28 40.12412 -106.64549 16293 ft 153 kts 300°
2026-04-24 19:28 40.13065 -106.65645 16282 ft 152 kts 300°
2026-04-24 19:29 40.14366 -106.67814 16290 ft 151 kts 300°
2026-04-24 19:29 40.15015 -106.68904 16293 ft 153 kts 300°
2026-04-24 19:29 40.15668 -106.70000 16296 ft 153 kts 300°
2026-04-24 19:30 40.16319 -106.71088 16249 ft 151 kts 300°
2026-04-24 19:30 40.16969 -106.72173 16036 ft 152 kts 300°
2026-04-24 19:30 40.17619 -106.73269 15760 ft 153 kts 300°
2026-04-24 19:30 40.18272 -106.74367 15486 ft 153 kts 300°
2026-04-24 19:31 40.18927 -106.75463 15238 ft 153 kts 299°
2026-04-24 19:31 40.19579 -106.76560 14966 ft 153 kts 300°
2026-04-24 19:31 40.20234 -106.77656 14726 ft 153 kts 299°
2026-04-24 19:31 40.20886 -106.78747 14476 ft 153 kts 299°
2026-04-24 19:32 40.21541 -106.79847 14221 ft 153 kts 299°
2026-04-24 19:32 40.22193 -106.80943 13989 ft 153 kts 300°
2026-04-24 19:32 40.22846 -106.82038 13730 ft 152 kts 299°
2026-04-24 19:32 40.23496 -106.83133 13452 ft 152 kts 300°
2026-04-24 19:33 40.24146 -106.84226 13276 ft 152 kts 299°
2026-04-24 19:33 40.24797 -106.85312 13084 ft 152 kts 300°
2026-04-24 19:33 40.25450 -106.86408 12895 ft 152 kts 298°
2026-04-24 19:33 40.26089 -106.87485 12793 ft 145 kts 298°
2026-04-24 19:34 40.26694 -106.88500 12791 ft 141 kts 298°
2026-04-24 19:34 40.27303 -106.89529 12796 ft 145 kts 299°
2026-04-24 19:34 40.27956 -106.90521 12787 ft 150 kts 313°
2026-04-24 19:34 40.29039 -106.90828 12796 ft 173 kts
2026-04-24 19:35 40.30075 -106.89952 12801 ft 187 kts 51°
2026-04-24 19:35 40.30433 -106.88364 12806 ft 187 kts 98°
2026-04-24 19:35 40.29926 -106.86913 12799 ft 170 kts 146°
2026-04-24 19:35 40.28912 -106.86316 12810 ft 159 kts 180°
2026-04-24 19:36 40.27816 -106.86067 12794 ft 161 kts 181°
2026-04-24 19:36 40.26728 -106.85814 12797 ft 159 kts 181°
2026-04-24 19:36 40.25638 -106.85552 12791 ft 160 kts 180°
2026-04-24 19:36 40.24545 -106.85306 12634 ft 158 kts 184°
2026-04-24 19:37 40.23568 -106.85618 12387 ft 140 kts 226°
2026-04-24 19:37 40.23216 -106.86725 12131 ft 140 kts 272°
2026-04-24 19:37 40.23728 -106.87833 11917 ft 155 kts 311°
2026-04-24 19:37 40.24592 -106.88615 11898 ft 146 kts 317°
2026-04-24 19:38 40.25504 -106.89180 11892 ft 146 kts 330°
2026-04-24 19:38 40.26533 -106.89412 11899 ft 158 kts 351°
2026-04-24 19:38 40.27630 -106.89344 11923 ft 155 kts 352°
2026-04-24 19:38 40.28700 -106.89243 11910 ft 153 kts 354°
2026-04-24 19:39 40.29759 -106.89127 11835 ft 152 kts 354°
2026-04-24 19:39 40.30812 -106.89010 11629 ft 153 kts 353°
2026-04-24 19:39 40.31860 -106.88890 11426 ft 150 kts 353°
2026-04-24 19:39 40.32899 -106.88768 11140 ft 148 kts 353°
2026-04-24 19:40 40.33926 -106.88657 10761 ft 148 kts 353°
2026-04-24 19:40 40.34952 -106.88538 10559 ft 146 kts 353°
2026-04-24 19:40 40.35958 -106.88420 10415 ft 139 kts 353°
2026-04-24 19:40 40.36803 -106.88304 10418 ft 114 kts 350°
2026-04-24 19:41 40.37540 -106.88227 10407 ft 101 kts 348°
2026-04-24 19:41 40.38256 -106.88156 10531 ft 105 kts 348°
2026-04-24 19:41 40.38994 -106.88079 10332 ft 110 kts 350°
2026-04-24 19:41 40.39752 -106.87990 10109 ft 111 kts 351°
2026-04-24 19:42 40.40518 -106.87901 9814 ft 110 kts 349°
2026-04-24 19:42 40.41283 -106.87826 9506 ft 110 kts 351°
2026-04-24 19:42 40.42049 -106.87719 9226 ft 110 kts 349°
2026-04-24 19:42 40.42790 -106.87637 9188 ft 106 kts 349°
2026-04-24 19:43 40.43569 -106.87556 9288 ft 118 kts 349°
2026-04-24 19:43 40.44405 -106.87464 9299 ft 121 kts 349°
2026-04-24 19:43 40.45251 -106.87362 9287 ft 121 kts 351°
2026-04-24 19:43 40.46072 -106.87266 9281 ft 118 kts 349°
2026-04-24 19:44 40.46895 -106.87172 9143 ft 119 kts 348°
2026-04-24 19:44 40.47713 -106.87081 8801 ft 116 kts 348°
2026-04-24 19:44 40.48512 -106.86991 8595 ft 111 kts 345°
2026-04-24 19:44 40.49228 -106.87234 8276 ft 107 kts 327°
2026-04-24 19:45 40.49913 -106.87528 8259 ft 102 kts 331°
2026-04-24 19:45 40.50580 -106.87823 8287 ft 104 kts 326°
2026-04-24 19:45 40.51282 -106.88147 8282 ft 109 kts 324°
2026-04-24 19:45 40.51996 -106.88482 8332 ft 105 kts 328°
2026-04-24 19:46 40.52639 -106.88896 8340 ft 102 kts 316°
2026-04-24 19:46 40.53217 -106.89436 8257 ft 100 kts 313°
2026-04-24 19:46 40.53760 -106.89957 8064 ft 93 kts 320°
2026-04-24 19:46 40.54467 -106.89646 7839 ft 137 kts 64°
2026-04-24 19:47 40.54267 -106.88609 7560 ft 114 kts 147°
2026-04-24 19:47 40.53724 -106.88034 7404 ft 86 kts 162°
2026-04-24 19:47 40.53217 -106.87685 7221 ft 83 kts 167°
2026-04-24 19:47 40.52693 -106.87348 7043 ft 86 kts 161°
2026-04-24 19:48 40.52176 -106.87012 6901 ft 79 kts 153°
2026-04-24 19:48 40.51765 -106.86726 6886 ft 56 kts 153°
2026-04-24 19:48 40.51653 -106.86503 6887 ft 13 kts 33°
2026-04-24 19:49 40.51819 -106.86572 6886 ft 9 kts 324°
2026-04-24 19:49 40.51825 -106.86610 6886 ft 0 kts 240°